,,,PA_Meas_PMT16A,,PR_Meas_QMR101_102,,RH_Meas_QMH101,,SR_Meas_QMS101,,TA_Meas_QMH101,,GenWind,,GenWind,
date,time,status,PA,status,PR,status,RH,status,SR,status,TA,status,DirAvg,status,SpdAvg,
2011-08-25, 00:00:04,VALID,1005.28,VALID,0,INVALID,163.746,VALID,0.100563,VALID,23.7194,VALID,30,VALID,0,
2011-08-25, 00:01:04,VALID,1005.28,VALID,0,INVALID,163.792,VALID,0,VALID,23.7407,VALID,30,VALID,0,
2011-08-25, 00:02:04,VALID,1005.33,VALID,0,INVALID,163.754,VALID,0,VALID,23.7212,VALID,31,VALID,0,
2011-08-25, 00:03:04,VALID,1005.35,VALID,0.5,INVALID,163.807,VALID,0,VALID,23.7017,VALID,50,VALID,0,
2011-08-25, 00:04:04,VALID,1005.36,VALID,0,INVALID,163.777,VALID,0,VALID,23.6823,VALID,116,VALID,0,
2011-08-25, 00:05:04,VALID,1005.37,VALID,0,INVALID,163.762,VALID,0,VALID,23.6823,VALID,111,VALID,0,
2011-08-25, 00:06:04,VALID,1005.39,VALID,0,INVALID,163.815,VALID,0,VALID,23.6823,VALID,115,VALID,0,
2011-08-25, 00:07:04,VALID,1005.37,VALID,0,INVALID,163.777,VALID,0,VALID,23.6823,VALID,94,VALID,0,
2011-08-25, 00:08:04,VALID,1005.4,VALID,0,INVALID,163.784,VALID,0,VALID,23.6823,VALID,91,VALID,0,
2011-08-25, 00:09:04,VALID,1005.39,VALID,0,INVALID,163.823,VALID,0,VALID,23.6628,VALID,101,VALID,0,
2011-08-25, 00:10:04,VALID,1005.37,VALID,0,INVALID,163.807,VALID,0,VALID,23.6628,VALID,339,VALID,0,
2011-08-25, 00:11:04,VALID,1005.37,VALID,0,INVALID,163.777,VALID,0,VALID,23.6434,VALID,340,VALID,0,
2011-08-25, 00:12:04,VALID,1005.32,VALID,0,INVALID,163.792,VALID,0,VALID,23.6239,VALID,75,VALID,0,
2011-08-25, 00:13:04,VALID,1005.33,VALID,0,INVALID,163.784,VALID,0,VALID,23.6239,VALID,83,VALID,0,
2011-08-25, 00:14:04,VALID,1005.31,VALID,0,INVALID,163.769,VALID,0,VALID,23.6044,VALID,53,VALID,0,
2011-08-25, 00:15:04,VALID,1005.29,VALID,0,INVALID,163.784,VALID,0,VALID,23.6044,VALID,56,VALID,0,
2011-08-25, 00:16:04,VALID,1005.28,VALID,0,INVALID,163.838,VALID,0,VALID,23.6257,VALID,56,VALID,0,
2011-08-25, 00:17:04,VALID,1005.23,VALID,0,INVALID,163.815,VALID,0,VALID,23.5637,VALID,91,VALID,0,
2011-08-25, 00:18:04,VALID,1005.21,VALID,0,INVALID,163.769,VALID,0,VALID,23.5655,VALID,92,VALID,0,
2011-08-25, 00:19:04,VALID,1005.23,VALID,0,INVALID,163.769,VALID,0,VALID,23.5655,VALID,101,VALID,0,
2011-08-25, 00:20:04,VALID,1005.2,VALID,0,INVALID,163.792,VALID,0,VALID,23.5248,VALID,97,VALID,0,
2011-08-25, 00:21:04,VALID,1005.17,VALID,0,INVALID,163.784,VALID,0,VALID,23.546,VALID,85,VALID,0,
2011-08-25, 00:22:04,VALID,1005.17,VALID,0,INVALID,163.8,VALID,0,VALID,23.5266,VALID,89,VALID,0,
2011-08-25, 00:23:04,VALID,1005.13,VALID,0,INVALID,163.777,VALID,0,VALID,23.5248,VALID,73,VALID,0,
2011-08-25, 00:24:04,VALID,1005.09,VALID,0,INVALID,163.823,VALID,0,VALID,23.5266,VALID,83,VALID,0,
2011-08-25, 00:25:04,VALID,1005.07,VALID,0,INVALID,163.8,VALID,0,VALID,23.5071,VALID,75,VALID,0,
2011-08-25, 00:26:04,VALID,1005.05,VALID,0,INVALID,163.784,VALID,0,VALID,23.4859,VALID,90,VALID,0,
2011-08-25, 00:27:04,VALID,1005.06,VALID,0,INVALID,163.777,VALID,0,VALID,23.5071,VALID,94,VALID,0,
2011-08-25, 00:28:04,VALID,1005.04,VALID,0,INVALID,163.792,VALID,0.100563,VALID,23.5071,VALID,102,VALID,0,
2011-08-25, 00:29:04,VALID,1005.03,VALID,0,INVALID,163.8,VALID,0.100563,VALID,23.5071,VALID,76,VALID,0,
2011-08-25, 00:30:04,VALID,1005.01,VALID,0,INVALID,163.784,VALID,0,VALID,23.4877,VALID,95,VALID,0,
2011-08-25, 00:31:04,VALID,1005.01,VALID,0,INVALID,163.792,VALID,0,VALID,23.5284,VALID,76,VALID,0,
2011-08-25, 00:32:04,VALID,1005,VALID,0,INVALID,163.792,VALID,0,VALID,23.5071,VALID,62,VALID,0,
2011-08-25, 00:33:04,VALID,1004.98,VALID,0.5,INVALID,163.8,VALID,0,VALID,23.5071,VALID,104,VALID,0,
2011-08-25, 00:34:04,VALID,1004.97,VALID,0,INVALID,163.784,VALID,0,VALID,23.5266,VALID,85,VALID,0,
2011-08-25, 00:35:04,VALID,1004.95,VALID,0,INVALID,163.777,VALID,0,VALID,23.4859,VALID,90,VALID,0,
2011-08-25, 00:36:04,VALID,1004.92,VALID,0,INVALID,163.807,VALID,0,VALID,23.5266,VALID,63,VALID,0,
2011-08-25, 00:37:04,VALID,1004.95,VALID,0,INVALID,163.8,VALID,0,VALID,23.5284,VALID,102,VALID,0,
2011-08-25, 00:38:04,VALID,1004.96,VALID,0,INVALID,163.784,VALID,0,VALID,23.5284,VALID,65,VALID,0,
2011-08-25, 00:39:04,VALID,1004.95,VALID,0,INVALID,163.8,VALID,0,VALID,23.4877,VALID,88,VALID,0,
2011-08-25, 00:40:04,VALID,1004.98,VALID,0,INVALID,163.777,VALID,0,VALID,23.447,VALID,90,VALID,0,
2011-08-25, 00:41:04,VALID,1005.01,VALID,0,INVALID,163.792,VALID,0,VALID,23.4877,VALID,81,VALID,0,
2011-08-25, 00:42:04,VALID,1005.03,VALID,0,INVALID,163.792,VALID,0,VALID,23.4682,VALID,100,VALID,0,
2011-08-25, 00:43:04,VALID,1005.06,VALID,0,INVALID,163.8,VALID,0,VALID,23.4682,VALID,86,VALID,0,
2011-08-25, 00:44:04,VALID,1005.07,VALID,0,INVALID,163.83,VALID,0,VALID,23.4682,VALID,83,VALID,0,
2011-08-25, 00:45:04,VALID,1005.1,VALID,0,INVALID,163.823,VALID,0,VALID,23.4487,VALID,77,VALID,0,
2011-08-25, 00:46:04,VALID,1005.13,VALID,0,INVALID,163.792,VALID,0,VALID,23.4487,VALID,104,VALID,0,
2011-08-25, 00:47:04,VALID,1005.15,VALID,0,INVALID,163.8,VALID,0,VALID,23.4293,VALID,89,VALID,0,
2011-08-25, 00:48:04,VALID,1005.16,VALID,0,INVALID,163.815,VALID,0,VALID,23.4293,VALID,91,VALID,0,
2011-08-25, 00:49:04,VALID,1005.16,VALID,0,INVALID,163.815,VALID,0,VALID,23.4293,VALID,91,VALID,0,
2011-08-25, 00:50:04,VALID,1005.19,VALID,0,INVALID,163.792,VALID,0.100563,VALID,23.408,VALID,26,VALID,0,
2011-08-25, 00:51:04,VALID,1005.19,VALID,0,INVALID,163.8,VALID,0,VALID,23.4487,VALID,36,VALID,0,
2011-08-25, 00:52:04,VALID,1005.22,VALID,0,INVALID,163.807,VALID,0,VALID,23.447,VALID,77,VALID,0,
2011-08-25, 00:53:04,VALID,1005.23,VALID,0,INVALID,163.777,VALID,0.100563,VALID,23.4487,VALID,75,VALID,0,
2011-08-25, 00:54:04,VALID,1005.3,VALID,0,INVALID,163.784,VALID,0.100563,VALID,23.4682,VALID,36,VALID,0,
2011-08-25, 00:55:04,VALID,1005.3,VALID,0,INVALID,163.777,VALID,0.100563,VALID,23.447,VALID,77,VALID,0,
2011-08-25, 00:56:04,VALID,1005.33,VALID,0,INVALID,163.792,VALID,0.100563,VALID,23.4682,VALID,29,VALID,0,
2011-08-25, 00:57:04,VALID,1005.35,VALID,0,INVALID,163.769,VALID,0,VALID,23.4487,VALID,58,VALID,0,
2011-08-25, 00:58:04,VALID,1005.36,VALID,0,INVALID,163.807,VALID,0,VALID,23.4293,VALID,95,VALID,0,
2011-08-25, 00:59:04,VALID,1005.34,VALID,0,INVALID,163.815,VALID,0.100563,VALID,23.4293,VALID,43,VALID,0,
2011-08-25, 01:00:04,VALID,1005.34,VALID,0,INVALID,163.807,VALID,0.100563,VALID,23.4098,VALID,79,VALID,0,
2011-08-25, 01:01:04,VALID,1005.34,VALID,0.5,INVALID,163.8,VALID,0,VALID,23.4098,VALID,54,VALID,0,
2011-08-25, 01:02:04,VALID,1005.31,VALID,0,INVALID,163.8,VALID,0,VALID,23.4116,VALID,68,VALID,0,
2011-08-25, 01:03:04,VALID,1005.3,VALID,0,INVALID,163.8,VALID,0,VALID,23.3709,VALID,57,VALID,0,
2011-08-25, 01:04:04,VALID,1005.31,VALID,0,INVALID,163.83,VALID,0,VALID,23.3514,VALID,81,VALID,0,
2011-08-25, 01:05:04,VALID,1005.31,VALID,0,INVALID,163.815,VALID,0,VALID,23.3302,VALID,61,VALID,0,
2011-08-25, 01:06:04,VALID,1005.3,VALID,0,INVALID,163.815,VALID,0,VALID,23.332,VALID,94,VALID,0,
2011-08-25, 01:07:04,VALID,1005.29,VALID,0,INVALID,163.838,VALID,0,VALID,23.332,VALID,93,VALID,0,
2011-08-25, 01:08:04,VALID,1005.29,VALID,0,INVALID,163.823,VALID,0,VALID,23.3337,VALID,14,VALID,0,
2011-08-25, 01:09:04,VALID,1005.25,VALID,0,INVALID,163.815,VALID,0,VALID,23.2931,VALID,13,VALID,0,
2011-08-25, 01:10:04,VALID,1005.22,VALID,0.5,INVALID,163.823,VALID,0,VALID,23.3125,VALID,13,VALID,0,
2011-08-25, 01:11:04,VALID,1005.25,VALID,0,INVALID,163.784,VALID,0.100563,VALID,23.2913,VALID,13,VALID,0,
2011-08-25, 01:12:04,VALID,1005.21,VALID,0,INVALID,163.8,VALID,0.100563,VALID,23.2913,VALID,45,VALID,0,
2011-08-25, 01:13:04,VALID,1005.21,VALID,0,INVALID,163.815,VALID,0,VALID,23.2931,VALID,50,VALID,0,
2011-08-25, 01:14:04,VALID,1005.21,VALID,0,INVALID,163.8,VALID,0,VALID,23.2736,VALID,71,VALID,0,
2011-08-25, 01:15:04,VALID,1005.21,VALID,0,INVALID,163.784,VALID,0,VALID,23.2541,VALID,82,VALID,0,
2011-08-25, 01:16:04,VALID,1005.18,VALID,0,INVALID,163.823,VALID,0,VALID,23.2754,VALID,82,VALID,0,
2011-08-25, 01:17:04,VALID,1005.18,VALID,0,INVALID,163.815,VALID,0,VALID,23.2541,VALID,84,VALID,0,
2011-08-25, 01:18:04,VALID,1005.11,VALID,0,INVALID,163.83,VALID,0,VALID,23.2347,VALID,84,VALID,0,
2011-08-25, 01:19:04,VALID,1005.09,VALID,0,INVALID,163.815,VALID,0,VALID,23.2347,VALID,47,VALID,0,
2011-08-25, 01:20:04,VALID,1005.07,VALID,0,INVALID,163.815,VALID,0,VALID,23.2577,VALID,35,VALID,0,
2011-08-25, 01:21:04,VALID,1005.07,VALID,0.5,INVALID,163.861,VALID,0,VALID,23.2364,VALID,32,VALID,0,
2011-08-25, 01:22:04,VALID,1005.07,VALID,0,INVALID,163.83,VALID,0,VALID,23.2364,VALID,33,VALID,0,
2011-08-25, 01:23:04,VALID,1005.05,VALID,0,INVALID,163.83,VALID,0,VALID,23.2577,VALID,51,VALID,0,
2011-08-25, 01:24:04,VALID,1005.04,VALID,0,INVALID,163.823,VALID,0,VALID,23.2347,VALID,34,VALID,0,
2011-08-25, 01:25:04,VALID,1005.04,VALID,0,INVALID,163.784,VALID,0,VALID,23.2559,VALID,25,VALID,0,
2011-08-25, 01:26:04,VALID,1005.05,VALID,0,INVALID,163.823,VALID,0,VALID,23.2559,VALID,26,VALID,0,
2011-08-25, 01:27:04,VALID,1005.05,VALID,0,INVALID,163.83,VALID,0,VALID,23.2559,VALID,78,VALID,0,
2011-08-25, 01:28:04,VALID,1005.05,VALID,0,INVALID,163.815,VALID,0,VALID,23.2364,VALID,100,VALID,0,
2011-08-25, 01:29:04,VALID,1005.09,VALID,0,INVALID,163.784,VALID,0,VALID,23.2559,VALID,68,VALID,0,
2011-08-25, 01:30:04,VALID,1005.06,VALID,0,INVALID,163.815,VALID,0,VALID,23.2736,VALID,92,VALID,0,
2011-08-25, 01:31:04,VALID,1005.08,VALID,0,INVALID,163.807,VALID,0,VALID,23.2541,VALID,68,VALID,0,
2011-08-25, 01:32:04,VALID,1005.07,VALID,0,INVALID,163.807,VALID,0,VALID,23.2524,VALID,83,VALID,0,
2011-08-25, 01:33:04,VALID,1005.11,VALID,0,INVALID,163.83,VALID,0,VALID,23.2524,VALID,67,VALID,0,
2011-08-25, 01:34:04,VALID,1005.1,VALID,0,INVALID,163.784,VALID,0,VALID,23.2736,VALID,78,VALID,0,
2011-08-25, 01:35:05,VALID,1005.1,VALID,0.5,INVALID,163.784,VALID,0.100563,VALID,23.2931,VALID,47,VALID,0,
2011-08-25, 01:36:05,VALID,1005.11,VALID,0,INVALID,163.815,VALID,0.100563,VALID,23.2524,VALID,76,VALID,0,
2011-08-25, 01:37:05,VALID,1005.12,VALID,0,INVALID,163.807,VALID,0,VALID,23.2931,VALID,102,VALID,0,
2011-08-25, 01:38:05,VALID,1005.08,VALID,0,INVALID,163.807,VALID,0,VALID,23.2718,VALID,61,VALID,0,
2011-08-25, 01:39:05,VALID,1005.08,VALID,0,INVALID,163.807,VALID,0.100563,VALID,23.3107,VALID,117,VALID,0,
2011-08-25, 01:40:05,VALID,1005.09,VALID,0,INVALID,163.8,VALID,0.100563,VALID,23.3107,VALID,91,VALID,0,
2011-08-25, 01:41:05,VALID,1005.08,VALID,0,INVALID,163.815,VALID,0,VALID,23.3302,VALID,83,VALID,0,
2011-08-25, 01:42:05,VALID,1005.08,VALID,0,INVALID,163.807,VALID,0.100563,VALID,23.332,VALID,86,VALID,0,
2011-08-25, 01:43:05,VALID,1005.09,VALID,0,INVALID,163.784,VALID,0.100563,VALID,23.3514,VALID,72,VALID,0,
2011-08-25, 01:44:05,VALID,1005.07,VALID,0,INVALID,163.807,VALID,0.100563,VALID,23.332,VALID,94,VALID,0,
2011-08-25, 01:45:05,VALID,1005.06,VALID,0,INVALID,163.815,VALID,0,VALID,23.3125,VALID,97,VALID,0,
2011-08-25, 01:46:05,VALID,1005.07,VALID,0,INVALID,163.792,VALID,0,VALID,23.2931,VALID,107,VALID,0,
2011-08-25, 01:47:05,VALID,1005.06,VALID,0,INVALID,163.807,VALID,0,VALID,23.3143,VALID,49,VALID,0,
2011-08-25, 01:48:05,VALID,1005.06,VALID,0,INVALID,163.792,VALID,0,VALID,23.3143,VALID,49,VALID,0,
2011-08-25, 01:49:05,VALID,1005.08,VALID,0,INVALID,163.83,VALID,0,VALID,23.2541,VALID,28,VALID,0,
2011-08-25, 01:50:05,VALID,1005.07,VALID,0,INVALID,163.8,VALID,0,VALID,23.2347,VALID,28,VALID,0,
2011-08-25, 01:51:05,VALID,1005.03,VALID,0,INVALID,163.823,VALID,0,VALID,23.2152,VALID,18,VALID,0,
2011-08-25, 01:52:05,VALID,1005.03,VALID,0,INVALID,163.8,VALID,0,VALID,23.217,VALID,22,VALID,0,
2011-08-25, 01:53:05,VALID,1005.02,VALID,0.5,INVALID,163.8,VALID,0,VALID,23.1763,VALID,41,VALID,0,
2011-08-25, 01:54:05,VALID,1004.99,VALID,0,INVALID,163.853,VALID,0,VALID,23.1763,VALID,24,VALID,0,
2011-08-25, 01:55:05,VALID,1005,VALID,0,INVALID,163.83,VALID,0,VALID,23.1975,VALID,2,VALID,0,
2011-08-25, 01:56:05,VALID,1005,VALID,0,INVALID,163.8,VALID,0,VALID,23.1568,VALID,35,VALID,0,
2011-08-25, 01:57:05,VALID,1004.97,VALID,0,INVALID,163.83,VALID,0,VALID,23.1763,VALID,18,VALID,0,
2011-08-25, 01:58:05,VALID,1004.97,VALID,0,INVALID,163.807,VALID,0,VALID,23.178,VALID,21,VALID,0,
2011-08-25, 01:59:05,VALID,1004.94,VALID,0,INVALID,163.838,VALID,0,VALID,23.1586,VALID,15,VALID,0,
2011-08-25, 02:00:05,VALID,1004.96,VALID,0,INVALID,163.815,VALID,0.100563,VALID,23.1568,VALID,38,VALID,0,
2011-08-25, 02:01:05,VALID,1004.95,VALID,0,INVALID,163.815,VALID,0.100563,VALID,23.1568,VALID,19,VALID,0,
2011-08-25, 02:02:05,VALID,1004.94,VALID,0,INVALID,163.8,VALID,0.100563,VALID,23.1162,VALID,25,VALID,0,
2011-08-25, 02:03:05,VALID,1004.96,VALID,0,INVALID,163.807,VALID,0,VALID,23.1162,VALID,65,VALID,0,
2011-08-25, 02:04:05,VALID,1004.92,VALID,0,INVALID,163.845,VALID,0.100563,VALID,23.1374,VALID,8,VALID,0,
2011-08-25, 02:05:05,VALID,1004.92,VALID,0,INVALID,163.807,VALID,0.100563,VALID,23.1162,VALID,81,VALID,0,
2011-08-25, 02:06:05,VALID,1004.9,VALID,0,INVALID,163.838,VALID,0.100563,VALID,23.1179,VALID,354,VALID,0,
2011-08-25, 02:07:05,VALID,1004.89,VALID,0,INVALID,163.853,VALID,0.100563,VALID,23.1179,VALID,8,VALID,0,
2011-08-25, 02:08:05,VALID,1004.88,VALID,0,INVALID,163.823,VALID,0.100563,VALID,23.0967,VALID,8,VALID,0,
2011-08-25, 02:09:05,VALID,1004.85,VALID,0,INVALID,163.823,VALID,0.100563,VALID,23.0984,VALID,359,VALID,0,
2011-08-25, 02:10:05,VALID,1004.84,VALID,0,INVALID,163.815,VALID,0.100563,VALID,23.0772,VALID,36,VALID,0,
2011-08-25, 02:11:05,VALID,1004.78,VALID,0,INVALID,163.868,VALID,0.100563,VALID,23.079,VALID,25,VALID,0,
2011-08-25, 02:12:05,VALID,1004.76,VALID,0,INVALID,163.807,VALID,0.100563,VALID,23.0772,VALID,4,VALID,0,
2011-08-25, 02:13:05,VALID,1004.73,VALID,0,INVALID,163.83,VALID,0.100563,VALID,23.0578,VALID,27,VALID,0,
2011-08-25, 02:14:05,VALID,1004.73,VALID,0,INVALID,163.83,VALID,0,VALID,23.0578,VALID,55,VALID,0,
2011-08-25, 02:15:05,VALID,1004.72,VALID,0,INVALID,163.823,VALID,0.100563,VALID,23.0578,VALID,30,VALID,0,
2011-08-25, 02:16:05,VALID,1004.72,VALID,0,INVALID,163.807,VALID,0.100563,VALID,23.0984,VALID,72,VALID,0,
2011-08-25, 02:17:05,VALID,1004.69,VALID,0,INVALID,163.823,VALID,0,VALID,23.079,VALID,8,VALID,0,
2011-08-25, 02:18:05,VALID,1004.66,VALID,0,INVALID,163.83,VALID,0,VALID,23.0984,VALID,22,VALID,0,
2011-08-25, 02:19:05,VALID,1004.68,VALID,0,INVALID,163.838,VALID,0.100563,VALID,23.1179,VALID,29,VALID,0,
2011-08-25, 02:20:05,VALID,1004.66,VALID,0,INVALID,163.815,VALID,0.100563,VALID,23.0967,VALID,27,VALID,0,
2011-08-25, 02:21:05,VALID,1004.67,VALID,0,INVALID,163.807,VALID,0.100563,VALID,23.1162,VALID,85,VALID,0,
2011-08-25, 02:22:05,VALID,1004.63,VALID,0,INVALID,163.823,VALID,0.100563,VALID,23.0967,VALID,91,VALID,0,
2011-08-25, 02:23:05,VALID,1004.66,VALID,0,INVALID,163.823,VALID,0,VALID,23.0967,VALID,34,VALID,0,
2011-08-25, 02:24:05,VALID,1004.66,VALID,0,INVALID,163.807,VALID,0.100563,VALID,23.0967,VALID,30,VALID,0,
2011-08-25, 02:25:05,VALID,1004.64,VALID,0,INVALID,163.807,VALID,0.100563,VALID,23.1162,VALID,70,VALID,0,
2011-08-25, 02:26:05,VALID,1004.65,VALID,0,INVALID,163.823,VALID,0.100563,VALID,23.1374,VALID,10,VALID,0,
2011-08-25, 02:27:05,VALID,1004.65,VALID,0.5,INVALID,163.807,VALID,0.100563,VALID,23.1568,VALID,75,VALID,0,
2011-08-25, 02:28:05,VALID,1004.67,VALID,0,INVALID,163.83,VALID,0.100563,VALID,23.1745,VALID,50,VALID,0,
2011-08-25, 02:29:05,VALID,1004.64,VALID,0,INVALID,163.792,VALID,0.100563,VALID,23.194,VALID,87,VALID,0,
2011-08-25, 02:30:05,VALID,1004.67,VALID,0,INVALID,163.815,VALID,0,VALID,23.2152,VALID,96,VALID,0,
2011-08-25, 02:31:05,VALID,1004.66,VALID,0,INVALID,163.8,VALID,0,VALID,23.2559,VALID,27,VALID,0,
2011-08-25, 02:32:05,VALID,1004.65,VALID,0,INVALID,163.823,VALID,0,VALID,23.2364,VALID,87,VALID,0,
2011-08-25, 02:33:05,VALID,1004.63,VALID,0,INVALID,163.838,VALID,0,VALID,23.2152,VALID,83,VALID,0,
2011-08-25, 02:34:05,VALID,1004.63,VALID,0,INVALID,163.83,VALID,0,VALID,23.2347,VALID,50,VALID,0,
2011-08-25, 02:35:05,VALID,1004.61,VALID,0,INVALID,163.807,VALID,0,VALID,23.2152,VALID,56,VALID,0,
2011-08-25, 02:36:05,VALID,1004.65,VALID,0,INVALID,163.807,VALID,0,VALID,23.2364,VALID,37,VALID,0,
2011-08-25, 02:37:05,VALID,1004.59,VALID,0,INVALID,163.815,VALID,0,VALID,23.2364,VALID,63,VALID,0,
2011-08-25, 02:38:05,VALID,1004.59,VALID,0,INVALID,163.845,VALID,0,VALID,23.1957,VALID,13,VALID,0,
2011-08-25, 02:39:05,VALID,1004.57,VALID,0,INVALID,163.868,VALID,0,VALID,23.2152,VALID,62,VALID,0,
2011-08-25, 02:40:05,VALID,1004.56,VALID,0,INVALID,163.853,VALID,0,VALID,23.217,VALID,25,VALID,0,
2011-08-25, 02:41:05,VALID,1004.57,VALID,0,INVALID,163.815,VALID,0,VALID,23.1957,VALID,84,VALID,0,
2011-08-25, 02:42:05,VALID,1004.52,VALID,0,INVALID,163.792,VALID,0,VALID,23.1957,VALID,39,VALID,0,
2011-08-25, 02:43:05,VALID,1004.51,VALID,0,INVALID,163.815,VALID,0,VALID,23.1957,VALID,5,VALID,0,
2011-08-25, 02:44:05,VALID,1004.49,VALID,0,INVALID,163.815,VALID,0,VALID,23.1763,VALID,52,VALID,0,
2011-08-25, 02:45:05,VALID,1004.45,VALID,0,INVALID,163.807,VALID,0,VALID,23.217,VALID,37,VALID,0,
2011-08-25, 02:46:05,VALID,1004.42,VALID,0,INVALID,163.815,VALID,0,VALID,23.1957,VALID,26,VALID,0,
2011-08-25, 02:47:05,VALID,1004.41,VALID,0,INVALID,163.807,VALID,0,VALID,23.1957,VALID,24,VALID,0,
2011-08-25, 02:48:05,VALID,1004.38,VALID,0,INVALID,163.845,VALID,0,VALID,23.1957,VALID,52,VALID,0,
2011-08-25, 02:49:05,VALID,1004.36,VALID,0,INVALID,163.807,VALID,0,VALID,23.1763,VALID,50,VALID,0,
2011-08-25, 02:50:05,VALID,1004.35,VALID,0,INVALID,163.823,VALID,0,VALID,23.1957,VALID,60,VALID,0,
2011-08-25, 02:51:05,VALID,1004.32,VALID,0,INVALID,163.823,VALID,0,VALID,23.1745,VALID,58,VALID,0,
2011-08-25, 02:52:05,VALID,1004.31,VALID,0,INVALID,163.807,VALID,0,VALID,23.2152,VALID,38,VALID,0,
2011-08-25, 02:53:05,VALID,1004.3,VALID,0,INVALID,163.8,VALID,0.100563,VALID,23.2152,VALID,19,VALID,0,
2011-08-25, 02:54:05,VALID,1004.27,VALID,0.5,INVALID,163.807,VALID,0.100563,VALID,23.1745,VALID,38,VALID,0,
2011-08-25, 02:55:05,VALID,1004.28,VALID,0,INVALID,163.83,VALID,0,VALID,23.1957,VALID,63,VALID,0,
2011-08-25, 02:56:05,VALID,1004.23,VALID,0,INVALID,163.83,VALID,0,VALID,23.1957,VALID,41,VALID,0,
2011-08-25, 02:57:05,VALID,1004.21,VALID,0,INVALID,163.8,VALID,0.100563,VALID,23.2152,VALID,75,VALID,0,
2011-08-25, 02:58:05,VALID,1004.24,VALID,0,INVALID,163.838,VALID,0,VALID,23.194,VALID,30,VALID,0,
2011-08-25, 02:59:05,VALID,1004.25,VALID,0,INVALID,163.815,VALID,0.100563,VALID,23.2152,VALID,61,VALID,0,
2011-08-25, 03:00:05,VALID,1004.23,VALID,0,INVALID,163.784,VALID,0,VALID,23.2152,VALID,80,VALID,0,
2011-08-25, 03:01:05,VALID,1004.23,VALID,0,INVALID,163.815,VALID,0,VALID,23.1957,VALID,71,VALID,0,
2011-08-25, 03:02:05,VALID,1004.22,VALID,0,INVALID,163.807,VALID,0,VALID,23.1957,VALID,41,VALID,0,
2011-08-25, 03:03:05,VALID,1004.22,VALID,0,INVALID,163.8,VALID,0,VALID,23.217,VALID,62,VALID,0,
2011-08-25, 03:04:05,VALID,1004.21,VALID,0,INVALID,163.83,VALID,0,VALID,23.217,VALID,18,VALID,0,
2011-08-25, 03:05:05,VALID,1004.17,VALID,0,INVALID,163.815,VALID,0,VALID,23.1975,VALID,14,VALID,0,
2011-08-25, 03:06:05,VALID,1004.18,VALID,0,INVALID,163.807,VALID,0,VALID,23.1957,VALID,29,VALID,0,
2011-08-25, 03:07:05,VALID,1004.14,VALID,0,INVALID,163.815,VALID,0,VALID,23.1957,VALID,15,VALID,0,
2011-08-25, 03:08:05,VALID,1004.15,VALID,0,INVALID,163.777,VALID,0,VALID,23.217,VALID,33,VALID,0,
2011-08-25, 03:09:05,VALID,1004.1,VALID,0,INVALID,163.807,VALID,0,VALID,23.217,VALID,50,VALID,0,
2011-08-25, 03:10:05,VALID,1004.06,VALID,0,INVALID,163.815,VALID,0,VALID,23.2364,VALID,98,VALID,0,
2011-08-25, 03:11:05,VALID,1004.03,VALID,0,INVALID,163.83,VALID,0,VALID,23.2364,VALID,23,VALID,0,
2011-08-25, 03:12:05,VALID,1004.01,VALID,0,INVALID,163.815,VALID,0,VALID,23.2364,VALID,18,VALID,0,
2011-08-25, 03:13:05,VALID,1003.97,VALID,0,INVALID,163.815,VALID,0,VALID,23.2364,VALID,41,VALID,0,
2011-08-25, 03:14:05,VALID,1003.97,VALID,0,INVALID,163.83,VALID,0,VALID,23.2364,VALID,19,VALID,0,
2011-08-25, 03:15:05,VALID,1003.95,VALID,0,INVALID,163.8,VALID,0,VALID,23.2152,VALID,52,VALID,0,
2011-08-25, 03:16:05,VALID,1003.91,VALID,0,INVALID,163.792,VALID,0,VALID,23.217,VALID,34,VALID,0,
2011-08-25, 03:17:05,VALID,1003.89,VALID,0,INVALID,163.815,VALID,0,VALID,23.217,VALID,33,VALID,0,
2011-08-25, 03:18:05,VALID,1003.9,VALID,0,INVALID,163.815,VALID,0,VALID,23.217,VALID,16,VALID,0,
2011-08-25, 03:19:05,VALID,1003.9,VALID,0,INVALID,163.8,VALID,0,VALID,23.1957,VALID,25,VALID,0,
2011-08-25, 03:20:05,VALID,1003.89,VALID,0,INVALID,163.777,VALID,0,VALID,23.217,VALID,28,VALID,0,
2011-08-25, 03:21:05,VALID,1003.88,VALID,0,INVALID,163.815,VALID,0,VALID,23.1763,VALID,83,VALID,0,
2011-08-25, 03:22:05,VALID,1003.85,VALID,0,INVALID,163.807,VALID,0,VALID,23.1975,VALID,33,VALID,0,
2011-08-25, 03:23:05,VALID,1003.86,VALID,0,INVALID,163.823,VALID,0,VALID,23.1975,VALID,36,VALID,0,
2011-08-25, 03:24:05,VALID,1003.88,VALID,0,INVALID,163.823,VALID,0,VALID,23.1568,VALID,67,VALID,0,
2011-08-25, 03:25:05,VALID,1003.85,VALID,0,INVALID,163.807,VALID,0,VALID,23.178,VALID,78,VALID,0,
2011-08-25, 03:26:05,VALID,1003.85,VALID,0,INVALID,163.823,VALID,0,VALID,23.1374,VALID,49,VALID,0,
2011-08-25, 03:27:05,VALID,1003.87,VALID,0,INVALID,163.807,VALID,0,VALID,23.1374,VALID,47,VALID,0,
2011-08-25, 03:28:05,VALID,1003.86,VALID,0,INVALID,163.815,VALID,0,VALID,23.178,VALID,34,VALID,0,
2011-08-25, 03:29:05,VALID,1003.89,VALID,0,INVALID,163.845,VALID,0,VALID,23.1586,VALID,42,VALID,0,
2011-08-25, 03:30:05,VALID,1003.85,VALID,0,INVALID,163.807,VALID,0.100563,VALID,23.1568,VALID,77,VALID,0,
2011-08-25, 03:31:05,VALID,1003.88,VALID,0,INVALID,163.83,VALID,0,VALID,23.1568,VALID,52,VALID,0,
2011-08-25, 03:32:05,VALID,1003.88,VALID,0,INVALID,163.815,VALID,0.100563,VALID,23.1568,VALID,16,VALID,0,
2011-08-25, 03:33:05,VALID,1003.91,VALID,0,INVALID,163.8,VALID,0,VALID,23.1568,VALID,50,VALID,0,
2011-08-25, 03:34:05,VALID,1003.91,VALID,0,INVALID,163.83,VALID,0,VALID,23.1551,VALID,23,VALID,0,
2011-08-25, 03:35:05,VALID,1003.91,VALID,0,INVALID,163.815,VALID,0,VALID,23.1568,VALID,30,VALID,0,
2011-08-25, 03:36:05,VALID,1003.91,VALID,0,INVALID,163.823,VALID,0,VALID,23.1763,VALID,20,VALID,0,
2011-08-25, 03:37:05,VALID,1003.91,VALID,0,INVALID,163.853,VALID,0,VALID,23.1568,VALID,29,VALID,0,
2011-08-25, 03:38:05,VALID,1003.91,VALID,0,INVALID,163.807,VALID,0,VALID,23.1374,VALID,92,VALID,0,
2011-08-25, 03:39:05,VALID,1003.89,VALID,0,INVALID,163.815,VALID,0,VALID,23.1568,VALID,20,VALID,0,
2011-08-25, 03:40:05,VALID,1003.89,VALID,0,INVALID,163.83,VALID,0,VALID,23.1586,VALID,11,VALID,0,
2011-08-25, 03:41:05,VALID,1003.91,VALID,0,INVALID,163.823,VALID,0.100563,VALID,23.1586,VALID,26,VALID,0,
2011-08-25, 03:42:05,VALID,1003.89,VALID,0,INVALID,163.823,VALID,0,VALID,23.1374,VALID,21,VALID,0,
2011-08-25, 03:43:05,VALID,1003.89,VALID,0,INVALID,163.823,VALID,0,VALID,23.1179,VALID,19,VALID,0,
2011-08-25, 03:44:05,VALID,1003.88,VALID,0,INVALID,163.823,VALID,0,VALID,23.1179,VALID,28,VALID,0,
2011-08-25, 03:45:05,VALID,1003.89,VALID,0,INVALID,163.823,VALID,0.100563,VALID,23.1391,VALID,76,VALID,0,
2011-08-25, 03:46:05,VALID,1003.86,VALID,0,INVALID,163.83,VALID,0.100563,VALID,23.0772,VALID,59,VALID,0,
2011-08-25, 03:47:05,VALID,1003.86,VALID,0,INVALID,163.83,VALID,0.100563,VALID,23.079,VALID,26,VALID,0,
2011-08-25, 03:48:05,VALID,1003.88,VALID,0,INVALID,163.83,VALID,0,VALID,23.0595,VALID,62,VALID,0,
2011-08-25, 03:49:05,VALID,1003.88,VALID,0,INVALID,163.823,VALID,0,VALID,23.0984,VALID,88,VALID,0,
2011-08-25, 03:50:05,VALID,1003.89,VALID,0,INVALID,163.83,VALID,0,VALID,23.079,VALID,89,VALID,0,
2011-08-25, 03:51:05,VALID,1003.89,VALID,0,INVALID,163.823,VALID,0.100563,VALID,23.079,VALID,89,VALID,0,
2011-08-25, 03:52:05,VALID,1003.91,VALID,0,INVALID,163.823,VALID,0.100563,VALID,23.0401,VALID,89,VALID,0,
2011-08-25, 03:53:05,VALID,1003.91,VALID,0,INVALID,163.823,VALID,0,VALID,23.0189,VALID,41,VALID,0,
2011-08-25, 03:54:05,VALID,1003.9,VALID,0,INVALID,163.845,VALID,0,VALID,23.0613,VALID,41,VALID,0,